User: anonymous   Login
Location: Fredericksburg
(30.2750°N, 98.8720°W)
Time: 10:17:02
(UTC-05:00)
Language:

PCSat - Orbit

View from above orbital plane
View from above orbital plane
View from above satellite
View from above satellite

Ground track
Ground track

The orbit data is extracted from the following two-line orbital elements,

1 26931U 01043C   18232.04828992 -.00000034  00000-0  18701-4 0  9996
2 26931  67.0507  64.6265 0007723 265.1215  94.9005 14.30513891881681
Epoch (UTC): 20 August 2018 01:09:32
Eccentricity: 0.0007723
inclination: 67.0507°
perigee height: 784 km
apogee height: 795 km
right ascension of ascending node: 64.6265°
argument of perigee: 265.1215°
revolutions per day: 14.30513891
mean anomaly at epoch: 94.9005°
orbit number at epoch: 88168

The dashed part of the orbit path shows where the satellite is in the earth's shadow,  

DLR